Latest Coastal Weather Observations for Double Island Point

IDQ60701

Issued at 1:21 am EST Tuesday 12 December 2017 (issued every 10 minutes, with the page automatically refreshed every 10 minutes)

About coastal observations | Map of coastal stations | Coastal observations for QLD | Marine services | Other Formats
Station Details ID: 040068 Name: DOUBLE ISLAND POINT LIGHTHOUSE Lat: -25.93 Lon: 153.19 Height: 95.64 m
Data from the previous 72 hours. | See also: Recent months at Double Island Point
Date/Time
EST
Temp
°C
Wind Pressure Rain since
9am
mm
Weather Cloud Vis
km
Sea
Height
m
Swell
Dir  Spd
kts
Gust
kts
hPa Trend Height
m
Period
s
Dir
12/01:00am 22.5 - - - 1014.2 - - - - - - - - -
12/12:30am 22.6 - - - 1015.1 - - - - - - - - -
12/12:00am 22.6 - - - 1014.7 - - - - - - - - -
 
Date/Time
EST
Temp
°C
Wind Pressure Rain since
9am
mm
Weather Cloud Vis
km
Sea
Height
m
Swell
Dir  Spd
kts
Gust
kts
hPa Trend Height
m
Period
s
Dir
11/11:30pm 22.5 - - - 1015.5 - - - - - - - - -
11/11:00pm 21.7 - - - 1015.2 - - - - - - - - -
11/10:30pm 22.0 - - - 1016.2 - - - - - - - - -
11/10:00pm 21.8 - - - 1016.0 - - - - - - - - -
11/09:30pm 21.9 - - - 1016.5 - - - - - - - - -
11/09:00pm 21.7 - - - 1015.6 - 0.8 - - - - - - -
11/08:30pm 22.3 - - - 1015.8 - - - - - - - - -
11/08:00pm 22.6 - - - 1015.1 - - - - - - - - -
11/07:30pm 23.0 - - - 1015.5 - - - - - - - - -
11/07:00pm 23.2 - - - 1014.8 - - - - - - - - -
11/06:30pm 23.2 - - - 1015.2 - - - - - - - - -
11/06:00pm 23.1 - - - 1014.5 - - Recent precip. - - - - - -
11/05:30pm 22.7 - - - 1014.8 - - - - - - - - -
11/05:00pm 22.4 - - - 1014.1 - - - - - - - - -
11/04:30pm 24.6 - - - 1014.3 - - - - - - - - -
11/04:00pm 25.1 - - - 1013.8 - - - - - - - - -
11/03:30pm 25.0 - - - 1014.3 - - - - - - - - -
11/03:00pm 25.1 - - - 1014.0 - 0.4 - - - - - - -
11/02:30pm 25.4 - - - 1014.6 - - - - - - - - -
11/02:00pm 25.3 - - - 1014.5 - - - - - - - - -
11/01:30pm 25.9 - - - 1015.2 - - - - - - - - -
11/01:00pm 25.9 - - - 1015.0 - - - - - - - - -
11/12:30pm 25.8 - - - 1015.9 - - - - - - - - -
11/12:00pm 25.9 - - - 1015.7 - - - - - - - - -
11/11:30am 25.4 - - - 1016.5 - - - - - - - - -
11/11:00am 23.8 - - - 1016.2 - - - - - - - - -
11/10:30am 26.3 - - - 1016.9 - - - - - - - - -
11/10:00am 26.0 - - - 1016.4 - - - - - - - - -
11/09:30am 25.5 - - - 1016.8 - - - - - - - - -
11/09:00am 24.2 - - - 1016.4 - 0.4 - - - - - - -
11/08:30am 25.3 - - - 1016.9 - - - - - - - - -
11/08:00am 25.0 - - - 1016.3 - - - - - - - - -
11/07:30am 25.0 - - - 1016.8 - - - - - - - - -
11/07:00am 24.5 - - - 1016.1 - - - - - - - - -
11/06:30am 24.2 - - - 1016.3 - - - - - - - - -
11/06:00am 23.5 - - - 1015.5 - - - - - - - - -
11/05:30am 23.1 - - - 1015.6 - - - - - - - - -
11/05:00am 23.1 - - - 1014.9 - - - - - - - - -
11/04:30am 23.1 - - - 1015.2 - - - - - - - - -
11/04:00am 23.1 - - - 1014.6 - - - - - - - - -
11/03:30am 23.1 - - - 1015.1 - - - - - - - - -
11/03:00am 23.1 - - - 1014.7 - 0.4 - - - - - - -
11/02:30am 22.9 - - - 1015.0 - - - - - - - - -
11/02:00am 23.0 - - - 1014.8 - - - - - - - - -
11/01:30am 23.0 - - - 1015.5 - - - - - - - - -
11/01:00am 22.8 - - - 1015.4 - - - - - - - - -
11/12:30am 22.2 - - - 1016.0 - - - - - - - - -
11/12:00am 22.9 - - - 1016.0 - - - - - - - - -
 
Date/Time
EST
Temp
°C
Wind Pressure Rain since
9am
mm
Weather Cloud Vis
km
Sea
Height
m
Swell
Dir  Spd
kts
Gust
kts
hPa Trend Height
m
Period
s
Dir
10/11:30pm 22.8 - - - 1016.8 - - - - - - - - -
10/11:00pm 22.2 - - - 1016.5 - - - - - - - - -
10/10:30pm 22.7 - - - 1017.6 - - - - - - - - -
10/10:00pm 20.5 - - - 1017.3 - - - - - - - - -
10/09:30pm 23.4 - - - 1017.8 - - - - - - - - -
10/09:00pm 23.5 - - - 1017.3 - 0.0 - - - - - - -
10/08:30pm 23.5 - - - 1017.4 - - - - - - - - -
10/08:00pm 23.5 - - - 1016.8 - - - - - - - - -
10/07:30pm 23.5 - - - 1016.9 - - - - - - - - -
10/07:00pm 23.5 - - - 1016.4 - - - - - - - - -
10/06:30pm 23.6 - - - 1016.7 - - - - - - - - -
10/06:00pm 23.8 - - - 1016.2 - - - - - - - - -
10/05:30pm 24.0 - - - 1016.5 - - - - - - - - -
10/05:00pm 24.3 - - - 1015.8 - - - - - - - - -
10/04:30pm 24.7 - - - 1016.3 - - - - - - - - -
10/04:00pm 24.9 - - - 1015.6 - - - - - - - - -
10/03:30pm 25.1 - - - 1016.1 - - - - - - - - -
10/03:00pm 25.0 - - - 1016.0 - 0.0 - - - - - - -
10/02:30pm 25.1 - - - 1016.7 - - - - - - - - -
10/02:00pm 24.6 - - - 1016.3 - - - - - - - - -
10/01:30pm 25.0 - - - 1016.9 - - - - - - - - -
10/01:00pm 24.5 - - - 1016.5 - - - - - - - - -
10/12:30pm 24.3 - - - 1017.2 - - - - - - - - -
10/12:00pm 23.8 - - - 1016.9 - - - - - - - - -
10/11:30am 24.9 - - - 1017.5 - - - - - - - - -
10/11:00am 24.2 - - - 1017.1 - - - - - - - - -
10/10:30am 23.8 - - - 1017.8 - - - - - - - - -
10/10:00am 24.5 - - - 1017.3 - - - - - - - - -
10/09:30am 24.1 - - - 1017.7 - - - - - - - - -
10/09:00am 23.7 - - - 1017.1 - 5.0 - - - - - - -
10/08:30am 23.5 - - - 1017.6 - - - - - - - - -
10/08:00am 23.3 - - - 1016.9 - - - - - - - - -
10/07:30am 22.7 - - - 1017.1 - - - - - - - - -
10/07:00am 22.6 - - - 1016.4 - - - - - - - - -
10/06:30am 22.7 - - - 1016.4 - - - - - - - - -
10/06:00am 22.7 - - - 1015.6 - - - - - - - - -
10/05:30am 22.6 - - - 1015.9 - - - - - - - - -
10/05:00am 22.4 - - - 1014.9 - - - - - - - - -
10/04:30am 22.1 - - - 1015.3 - - - - - - - - -
10/04:00am 21.6 - - - 1014.7 - - - - - - - - -
10/03:30am 20.6 - - - 1015.4 - - - - - - - - -
10/03:00am 20.1 - - - 1014.7 - 3.0 - - - - - - -
10/02:30am 20.0 - - - 1015.6 - - - - - - - - -
10/02:00am 20.2 - - - 1015.3 - - - - - - - - -
10/01:30am 20.5 - - - 1015.9 - - - - - - - - -
10/01:00am 20.9 - - - 1015.8 - - - - - - - - -
10/12:30am 20.8 - - - 1016.8 - - - - - - - - -
10/12:00am 20.7 - - - 1016.7 - - - - - - - - -
 
Date/Time
EST
Temp
°C
Wind Pressure Rain since
9am
mm
Weather Cloud Vis
km
Sea
Height
m
Swell
Dir  Spd
kts
Gust
kts
hPa Trend Height
m
Period
s
Dir
09/11:30pm 20.4 - - - 1017.5 - - - - - - - - -
09/11:00pm 20.1 - - - 1017.3 - - - - - - - - -
09/10:30pm 19.9 - - - 1017.5 - - - - - - - - -
09/10:00pm 20.2 - - - 1017.1 - - - - - - - - -
09/09:30pm 20.1 - - - 1018.0 - - - - - - - - -
09/09:00pm 19.2 - - - 1016.6 - 2.0 Rain - - - - - -
09/08:50pm 20.3 - - - 1015.3 - - - - - - - - -
09/08:30pm 24.8 - - - 1017.7 - - - - - - - - -
09/08:00pm 24.7 - - - 1016.1 - - - - - - - - -
09/07:30pm 24.2 - - - 1015.0 - - - - - - - - -
09/07:00pm 24.3 - - - 1014.3 - - - - - - - - -
09/06:30pm 24.7 - - - 1015.1 - - - - - - - - -
09/06:00pm 25.6 - - - 1014.3 - - - - - - - - -
09/05:30pm 27.0 - - - 1014.3 - - - - - - - - -
09/05:00pm 27.4 - - - 1013.1 - - - - - - - - -
09/04:30pm 28.4 - - - 1013.5 - - - - - - - - -
09/04:00pm 28.1 - - - 1013.2 - - - - - - - - -
09/03:30pm 28.1 - - - 1013.7 - - - - - - - - -
09/03:00pm 27.3 - - - 1013.4 - 0.0 - - - - - - -
09/02:30pm 27.2 - - - 1014.1 - - - - - - - - -
09/02:00pm 27.7 - - - 1013.9 - - - - - - - - -
09/01:30pm 28.1 - - - 1014.6 - - - - - - - - -
09/01:00pm 28.1 - - - 1014.4 - - - - - - - - -
09/12:30pm 28.0 - - - 1015.0 - - - - - - - - -
09/12:00pm 27.8 - - - 1014.7 - - - - - - - - -
09/11:30am 27.6 - - - 1015.3 - - - - - - - - -
09/11:00am 27.8 - - - 1014.8 - - - - - - - - -
09/10:30am 26.3 - - - 1015.3 - - - - - - - - -
09/10:00am 26.3 - - - 1014.7 - - - - - - - - -
09/09:30am 26.0 - - - 1015.3 - - - - - - - - -
09/09:00am 24.8 - - - 1014.8 - 0.0 - - - - - - -
09/08:30am 24.9 - - - 1015.2 - - - - - - - - -
09/08:00am 25.2 - - - 1014.6 - - - - - - - - -
09/07:30am 25.6 - - - 1014.9 - - - - - - - - -
09/07:00am 24.7 - - - 1014.1 - - - - - - - - -
09/06:30am 24.0 - - - 1014.5 - - - - - - - - -
09/06:00am 23.1 - - - 1013.5 - - - - - - - - -
09/05:30am 22.8 - - - 1013.2 - - - - - - - - -
09/05:00am 22.8 - - - 1012.3 - - - - - - - - -
09/04:30am 22.8 - - - 1012.5 - - - - - - - - -
09/04:00am 22.8 - - - 1011.5 - - - - - - - - -
09/03:30am 22.7 - - - 1011.7 - - - - - - - - -
09/03:00am 22.2 - - - 1011.2 - 0.0 - - - - - - -
09/02:30am 21.9 - - - 1011.7 - - - - - - - - -
09/02:00am 22.0 - - - 1011.2 - - - - - - - - -
09/01:30am 22.0 - - - 1011.9 - - - - - - - - -

Other Formats:

Comma delimited format used in spreadsheet applications
http://www.bom.gov.au/fwo/IDQ60701/IDQ60701.94584.axf

JavaScript Object Notation format (JSON) in row-major order
http://www.bom.gov.au/fwo/IDQ60701/IDQ60701.94584.json